Regional Weather Roundup
Issued by NWS

Home | Current Version | Previous Version | Text Only | Print | Product List | Glossary Off
Versions: 1 2 3 4 5 6 7 8 9 10 11 12 13 14 15 16 17 18 19 20 21 22 23 24 25 26 27 28 29 30 31 32 33 34 35 36 37 38 39 40 41 42 43 44 45 46 47 48 49 50

000
ASUS43 KOAX 080002
RWRNE

WEATHER ROUNDUP FOR NEBRASKA
NATIONAL WEATHER SERVICE OMAHA NE
600 PM CST SUN FEB 07 2016

NOTES: SATELLITE DATA IS BEING USED TO AUGMENT CLOUD COVER ABOVE
       12000 FEET.
       "FAIR" INDICATES FEW OR NO CLOUDS BELOW 12,000 FEET WITH NO
       SIGNIFICANT WEATHER AND/OR OBSTRUCTIONS TO VISIBILITY.

  * THESE STATIONS DO NOT REPORT WEATHER SUCH AS RAIN...SNOW OR FOG.

NEZ001>004-019>022-054>056-080100-
NEBRASKA PANHANDLE

CITY           SKY/WX    TMP DP  RH WIND       PRES   REMARKS
SCOTTSBLUFF    CLOUDY    32  16  51 NW21G30   30.32R WCI  20
6HR MIN TEMP:  32; 6HR MAX TEMP:  35;

ALLIANCE       CLEAR     30  14  51 NW22G31   30.25R WCI  17
6HR MIN TEMP:  30; 6HR MAX TEMP:  33;

CHADRON        CLEAR     34  13  41 NW17G31   30.29R WCI  23
6HR MIN TEMP:  34; 6HR MAX TEMP:  39;

SIDNEY         CLEAR     27  15  61 NW21      30.29R WCI  13
6HR MIN TEMP:  27; 6HR MAX TEMP:  34;

$$

NEZ057>060-069>072-079>082-080100-
SOUTHWEST NEBRASKA

CITY           SKY/WX    TMP DP  RH WIND       PRES   REMARKS
NORTH PLATTE   CLEAR     35  15  44 NW22G28   30.18R WCI  23
6HR MIN TEMP:  35; 6HR MAX TEMP:  39;

IMPERIAL       CLEAR     33  17  51 NW24G36   30.25R WCI  20
6HR MIN TEMP:  33; 6HR MAX TEMP:  38;

MCCOOK         CLEAR     36  20  52 NW24G33   30.20S WCI  24
6HR MIN TEMP:  36; 6HR MAX TEMP:  40;

$$

NEZ005>010-023>029-035>040-094-080100-
NORTH CENTRAL NEBRASKA

CITY           SKY/WX    TMP DP  RH WIND       PRES   REMARKS
VALENTINE      CLEAR     35  18  49 NW24G43   30.12R WCI  23
6HR MIN TEMP:  35; 6HR MAX TEMP:  39;

AINSWORTH      PTCLDY    36  17  46 NW29G52   30.10R WCI  23
BROKEN BOW     CLEAR     37  13  37 NW28G43   30.09R WCI  25
6HR MIN TEMP:  37; 6HR MAX TEMP:  42;

ORD            MOCLDY    37  18  46 NW33G53   30.06R WCI  24
6HR MIN TEMP:  37; 6HR MAX TEMP:  42;

$$

NEZ041-046>049-061>064-073>077-083>087-080100-
SOUTH CENTRAL NEBRASKA

CITY           SKY/WX    TMP DP  RH WIND       PRES   REMARKS
GRAND ISLAND   PTCLDY    37  20  50 NW17      30.08R WCI  27
6HR MIN TEMP:  37; 6HR MAX TEMP:  42;

HASTINGS       CLEAR     38  20  48 NW24G32   30.08R WCI  27
6HR MIN TEMP:  38; 6HR MAX TEMP:  42;

$$

NEZ011>018-030>034-042>045-080100-
NORTHEAST NEBRASKA

CITY           SKY/WX    TMP DP  RH WIND       PRES   REMARKS
NORFOLK        CLOUDY    36  26  67 NW25G32   29.98R WCI  24
6HR MIN TEMP:  35; 6HR MAX TEMP:  42; 6HR PCP: TRACE;

BLAIR          LGT SNOW  35  30  83 W21G29    29.96R WCI  24
COLUMBUS *     CLOUDY    36  21  55 NW22G30   30.02R WCI  24
TEKAMAH        CLOUDY    35  29  78 NW30G38   29.97R WCI  22
6HR MIN TEMP:  35; 6HR MAX TEMP:  43; 6HR PCP: TRACE;

$$

NEZ050>053-065>068-078-088>093-080100-
SOUTHEAST NEBRASKA

CITY           SKY/WX    TMP DP  RH WIND       PRES   REMARKS
LINCOLN        CLOUDY    37  28  70 W18G26    30.04S WCI  27
6HR MIN TEMP:  35; 6HR MAX TEMP:  44; 6HR PCP: TRACE;

OMAHA EPPLEY   FLURRIES  36  30  79 W25G32    29.96R WCI  24
6HR MIN TEMP:  36; 6HR MAX TEMP:  45; 6HR PCP: TRACE;

BEATRICE       CLOUDY    37  28  70 NW18G26   30.06F WCI  26
FALLS CITY     CLOUDY    38  28  67 NW28G36   30.02R WCI  26
6HR MIN TEMP:  38; 6HR MAX TEMP:  50; 6HR PCP: TRACE;

NEBRASKA CITY  CLOUDY    36  28  75 NW23G31   30.00S WCI  24
$$

NEZ044-045-051>053-067-080100-
OMAHA AREA

CITY           SKY/WX    TMP DP  RH WIND       PRES   REMARKS
OMAHA EPPLEY   FLURRIES  36  30  79 W25G32    29.96R WCI  24
6HR MIN TEMP:  36; 6HR MAX TEMP:  45; 6HR PCP: TRACE;

BLAIR          LGT SNOW  35  30  83 W21G29    29.96R WCI  24
WAHOO          LGT RAIN  36  30  80 NW26G32   30.00R WCI  23
$$



USA.gov is the U.S. government's official web portal to all federal, state and local government web resources and services.